Tracking 18852 objects as of 23-Nov-2017
HD Live streaming from Space Station
objects crossing your sky now

EUTELSAT 1-F4 (ECS 4)

Track EUTELSAT 1-F4 (ECS 4) now!
EUTELSAT 1-F4 (ECS 4) is classified as:


NORAD ID: 18351
Int'l Code: 1987-078B
Perigee: 36,183.4 km
Apogee: 36,302.3 km
Inclination: 15.5 °
Period: 1,459.1 minutes
Semi major axis: 42613 km
RCS: 3.9811 m2 (large)
Launch date: September 16, 1987
Source: European Telecommunications Satellite Organization (EUTE)
Launch site: FRENCH GUIANA (FRGUI)
aabbcc
Your satellite tracking list
Your tracking list is empty




NASA's NSSDC Master Catalog

Two Line Element Set (TLE):
1 18351U 87078B   17326.34857028 -.00000263 +00000-0 +00000-0 0  9996
2 18351 015.4711 008.0339 0013943 300.8576 031.2132 00.98690831095876
Source of the keplerian elements: AFSPC